Weather History for Plainview, TX

Change the Weather History Date:

Monday, September 10, 2012

  Actual Average Record
Temperature  
Mean Temperature 70 °F -  
Max Temperature 87 °F 84 °F 100 °F (1921)
Min Temperature 53 °F 61 °F 44 °F (1962)
Cooling Degree Days 5    
Growing Degree Days 20 (Base 50)    
Moisture  
Dew Point 43 °F    
Average Humidity 42    
Maximum Humidity 82    
Minimum Humidity 19    
Precipitation  
Precipitation 0.00 in - - ()
Sea Level Pressure  
Sea Level Pressure 30.13 in    
Wind  
Wind Speed 5 mph (South)    
Max Wind Speed 15 mph    
Max Gust Speed 20 mph    
Visibility 10 miles    
Events      
Averages and records for this station are not official NWS values.
T = Trace of Precipitation, MM = Missing Value Source: NWS Daily Summary

Daily Weather History Graph

Daily Weather History Graph

Search for Another Location

Airport:

Trip Planner

Search our weather history database for the weather conditions in past years. The results will help you decide how hot, cold, wet, or windy it might be!

Date:

Astronomy

Sep. 10, 2012 Rise Set
Actual Time 7:26 AM CDT 7:59 PM CDT
Civil Twilight 7:01 AM CDT 8:24 PM CDT
Nautical Twilight 6:32 AM CDT 8:54 PM CDT
Astronomical Twilight 6:01 AM CDT 9:24 PM CDT
Moon 2:01 AM CDT (9/10) 4:20 PM CDT (9/10)
Length of Visible Light 13h 23m
Length of Day
12h 32m
Waning Crescent, 30% of the Moon is Illuminated
Sep 10
Waning Crescent
Sep 15
New
Sep 22
First Quarter
Sep 29
Full
Oct 8
Last Quarter

Hourly Weather History & Observations

Time (CDT) Temp. Dew Point Humidity Pressure Visibility Wind Dir Wind Speed Gust Speed Precip Events Conditions
12:15 AM 59.0 °F 41.0 °F 51% 30.20 in 10.0 mi SE 6.9 mph - N/A   Clear
12:35 AM 59.0 °F 41.0 °F 51% 30.20 in 10.0 mi SSE 5.8 mph - N/A   Clear
12:55 AM 55.4 °F 41.0 °F 58% 30.20 in 10.0 mi South 3.5 mph - N/A   Clear
1:15 AM 57.2 °F 41.0 °F 55% 30.20 in 10.0 mi South 3.5 mph - N/A   Clear
1:35 AM 57.2 °F 39.2 °F 51% 30.20 in 10.0 mi South 3.5 mph - N/A   Clear
1:55 AM 55.4 °F 41.0 °F 58% 30.20 in 10.0 mi Calm Calm - N/A   Clear
2:15 AM 57.2 °F 41.0 °F 55% 30.19 in 10.0 mi Calm Calm - N/A   Clear
2:35 AM 55.4 °F 41.0 °F 58% 30.18 in 10.0 mi Calm Calm - N/A   Clear
2:55 AM 57.2 °F 41.0 °F 55% 30.18 in 10.0 mi Calm Calm - N/A   Clear
3:15 AM 55.4 °F 39.2 °F 54% 30.18 in 10.0 mi Calm Calm - N/A   Clear
3:35 AM 53.6 °F 41.0 °F 62% 30.18 in 10.0 mi Calm Calm - N/A   Clear
3:55 AM 53.6 °F 44.6 °F 72% 30.18 in 10.0 mi WSW 4.6 mph - N/A   Clear
4:15 AM 53.6 °F 42.8 °F 67% 30.17 in 10.0 mi Calm Calm - N/A   Clear
4:35 AM 53.6 °F 44.6 °F 72% 30.17 in 10.0 mi Calm Calm - N/A   Clear
4:55 AM 53.6 °F 42.8 °F 67% 30.17 in 10.0 mi WNW 3.5 mph - N/A   Clear
5:15 AM 53.6 °F 44.6 °F 72% 30.17 in 10.0 mi Calm Calm - N/A   Clear
5:35 AM 55.4 °F 44.6 °F 67% 30.17 in 10.0 mi Calm Calm - N/A   Clear
5:55 AM 53.6 °F 44.6 °F 72% 30.17 in 10.0 mi Calm Calm - N/A   Clear
6:15 AM 53.6 °F 44.6 °F 72% 30.17 in 10.0 mi Calm Calm - N/A   Clear
6:35 AM 55.4 °F 46.4 °F 72% 30.17 in 10.0 mi Calm Calm - N/A   Clear
6:55 AM 55.4 °F 46.4 °F 72% 30.17 in 10.0 mi Calm Calm - N/A   Clear
7:15 AM 55.4 °F 46.4 °F 72% 30.18 in 10.0 mi Calm Calm - N/A   Clear
7:35 AM 55.4 °F 48.2 °F 77% 30.18 in 10.0 mi Calm Calm - N/A   Clear
7:55 AM 55.4 °F 50.0 °F 82% 30.18 in 10.0 mi Calm Calm - N/A   Clear
8:15 AM 59.0 °F 50.0 °F 72% 30.18 in 10.0 mi Calm Calm - N/A   Clear
8:35 AM 59.0 °F 50.0 °F 72% 30.19 in 10.0 mi Calm Calm - N/A   Clear
8:55 AM 62.6 °F 50.0 °F 63% 30.19 in 10.0 mi Calm Calm - N/A   Clear
9:15 AM 68.0 °F 51.8 °F 56% 30.19 in 10.0 mi Calm Calm - N/A   Clear
9:35 AM 69.8 °F 46.4 °F 43% 30.20 in 10.0 mi SSW 3.5 mph - N/A   Clear
9:55 AM 71.6 °F 46.4 °F 41% 30.20 in 10.0 mi SSW 6.9 mph - N/A   Clear
10:15 AM 73.4 °F 44.6 °F 36% 30.20 in 10.0 mi South 9.2 mph - N/A   Clear
10:35 AM 73.4 °F 42.8 °F 33% 30.20 in 10.0 mi SSW 11.5 mph - N/A   Clear
10:55 AM 77.0 °F 41.0 °F 28% 30.20 in 10.0 mi SSW 11.5 mph - N/A   Clear
11:15 AM 77.0 °F 37.4 °F 24% 30.19 in 10.0 mi South 12.7 mph - N/A   Clear
11:35 AM 77.0 °F 37.4 °F 24% 30.19 in 10.0 mi SSW 11.5 mph 19.6 mph N/A   Clear
11:55 AM 78.8 °F 37.4 °F 23% 30.19 in 10.0 mi South 11.5 mph 17.3 mph N/A   Clear
12:15 PM 78.8 °F 39.2 °F 24% 30.18 in 10.0 mi South 12.7 mph - N/A   Clear
12:35 PM 80.6 °F 37.4 °F 21% 30.18 in 10.0 mi SW 13.8 mph 17.3 mph N/A   Clear
12:55 PM 80.6 °F 39.2 °F 23% 30.17 in 10.0 mi South 12.7 mph 16.1 mph N/A   Clear
1:15 PM 80.6 °F 39.2 °F 23% 30.16 in 10.0 mi SW 9.2 mph 17.3 mph N/A   Clear
1:35 PM 80.6 °F 41.0 °F 24% 30.15 in 10.0 mi SSW 9.2 mph - N/A   Clear
1:55 PM 82.4 °F 41.0 °F 23% 30.14 in 10.0 mi WSW 9.2 mph 17.3 mph N/A   Clear
2:15 PM 82.4 °F 39.2 °F 21% 30.13 in 10.0 mi SW 9.2 mph 19.6 mph N/A   Clear
2:35 PM 82.4 °F 39.2 °F 21% 30.12 in 10.0 mi SSW 13.8 mph 19.6 mph N/A   Clear
2:55 PM 82.4 °F 39.2 °F 21% 30.11 in 10.0 mi South 10.4 mph 18.4 mph N/A   Clear
3:15 PM 84.2 °F 39.2 °F 20% 30.10 in 10.0 mi South 9.2 mph 17.3 mph N/A   Clear
3:35 PM 86.0 °F 41.0 °F 20% 30.10 in 10.0 mi South 11.5 mph 18.4 mph N/A   Clear
3:55 PM 87.8 °F 41.0 °F 19% 30.09 in 10.0 mi SW 10.4 mph - N/A   Clear
4:15 PM 84.2 °F 39.2 °F 20% 30.08 in 10.0 mi South 15.0 mph - N/A   Clear
4:35 PM 87.8 °F 42.8 °F 21% 30.07 in 10.0 mi SSW 12.7 mph 19.6 mph N/A   Clear
4:55 PM 87.8 °F 41.0 °F 19% 30.06 in 10.0 mi South 10.4 mph 18.4 mph N/A   Clear
5:15 PM 87.8 °F 42.8 °F 21% 30.06 in 10.0 mi South 13.8 mph 18.4 mph N/A   Clear
5:35 PM 87.8 °F 42.8 °F 21% 30.05 in 10.0 mi South 10.4 mph 17.3 mph N/A   Clear
5:55 PM 87.8 °F 42.8 °F 21% 30.05 in 10.0 mi South 9.2 mph 16.1 mph N/A   Clear
6:15 PM 84.2 °F 41.0 °F 22% 30.05 in 10.0 mi South 11.5 mph - N/A   Clear
6:35 PM 82.4 °F 41.0 °F 23% 30.04 in 10.0 mi South 8.1 mph - N/A   Clear
6:55 PM 82.4 °F 42.8 °F 25% 30.04 in 10.0 mi South 11.5 mph - N/A   Clear
7:15 PM 82.4 °F 42.8 °F 25% 30.04 in 10.0 mi South 8.1 mph - N/A   Clear
7:35 PM 80.6 °F 42.8 °F 26% 30.04 in 10.0 mi South 9.2 mph - N/A   Clear
7:55 PM 78.8 °F 44.6 °F 30% 30.04 in 10.0 mi South 8.1 mph - N/A   Clear
8:15 PM 77.0 °F 44.6 °F 32% 30.04 in 10.0 mi South 8.1 mph - N/A   Clear
8:35 PM 73.4 °F 44.6 °F 36% 30.04 in 10.0 mi SSE 6.9 mph - N/A   Clear
8:55 PM 73.4 °F 44.6 °F 36% 30.04 in 10.0 mi SSE 8.1 mph - N/A   Clear
9:15 PM 73.4 °F 44.6 °F 36% 30.05 in 10.0 mi SSE 6.9 mph - N/A   Clear
9:35 PM 71.6 °F 44.6 °F 38% 30.06 in 10.0 mi South 6.9 mph - N/A   Clear
9:55 PM 69.8 °F 42.8 °F 38% 30.06 in 10.0 mi SSE 6.9 mph - N/A   Clear
10:15 PM 69.8 °F 44.6 °F 40% 30.06 in 10.0 mi SSE 8.1 mph - N/A   Clear
10:35 PM 69.8 °F 44.6 °F 40% 30.06 in 10.0 mi SSE 6.9 mph - N/A   Clear
10:55 PM 69.8 °F 42.8 °F 38% 30.06 in 10.0 mi SSE 9.2 mph - N/A   Clear
11:15 PM 69.8 °F 42.8 °F 38% 30.06 in 10.0 mi SSE 8.1 mph - N/A   Clear
11:35 PM 69.8 °F 42.8 °F 38% 30.06 in 10.0 mi SSE 9.2 mph - N/A   Clear
11:55 PM 69.8 °F 41.0 °F 35% 30.06 in 10.0 mi SSE 8.1 mph - N/A   Clear